User: anonymous   Login
Location: York
(31.8935°S, 116.7682°E)
Time: 19:59:49
(UTC+08:00)
Language:

CUBEBUG 2 - Orbit

View from above orbital plane
View from above orbital plane
View from above satellite
View from above satellite

Ground track
Ground track

The orbit data is extracted from the following two-line orbital elements,

1 39440U 13066AA  22342.12281752  .00003292  00000-0  44500-3 0  9999
2 39440  97.7498 292.6390 0076345 288.5889  70.7041 14.77693585487126
Epoch (UTC): 08 December 2022 02:56:51
Eccentricity: 0.0076345
inclination: 97.7498°
perigee height: 583 km
apogee height: 690 km
right ascension of ascending node: 292.6390°
argument of perigee: 288.5889°
revolutions per day: 14.77693585
mean anomaly at epoch: 70.7041°
orbit number at epoch: 48712

The dashed part of the orbit path shows where the satellite is in the earth's shadow,  

DLR